AISTechSat 3
1 44103U 19018AB  19115.72169882  .00000905  00000-0  42042-4 0  9991
2 44103  97.4616 176.1059 0012834 210.1351 149.9148 15.22519257  3702
AISat 1
1 44104U 19018AC  19115.72755520  .00000722  00000-0  26199-4 0  9994
2 44104  97.5148 176.5238 0057656 257.6007 101.8777 15.30359325  3759
